Location: Casco Millpond
(44.5581°N, 87.6111°W)
Time: 22:46:29
(UTC+00:00)

BREEZE-M DEB (TANK) - Pass Details

Date: 16 January 2026
Orbit: 313 x 11317 km, 49.7° (Epoch: 13 February)

Event Time Altitude Azimuth Distance (km) Brightness Sun altitude
Exits shadow 12:22:40 17° 309° (NW) 901 3.9 -10.7°
Maximum altitude 12:24:11 45° 19° (NNE) 442 2.8 -10.4°
Drops below altitude 10° 12:26:43 10° 96° (E) 1,420 6.9 -10.0°
Sets 12:29:18 0° 103° (ESE) 2,721 9.1 -9.5°
